Location: *
(45.9500°N, 9.0833°E)
Time: 20:55:43
(UTC+00:00)

NOSS 3-3 (C) - Pass Details

Date: 03 March 2021
Orbit: 813 x 1399 km, 63.4° (Epoch: 15 April)

Event Time Altitude Azimuth Distance (km) Brightness Sun altitude
Rises 20:08:34 0° 321° (NW) 3,951 8.1 -30.6°
Reaches altitude 10° 20:11:07 10° 322° (NW) 3,069 7.3 -31.0°
Maximum altitude 20:18:38 80° 50° (NE) 1,297 4.4 -32.2°
Enters shadow 20:18:50 79° 69° (ENE) 1,302 4.4 -32.2°
